Regional Weather Roundup
Issued by NWS

Home | Current Version | Previous Version | Graphics & Text | Print | Product List | Glossary On
Versions: 1 2 3 4 5 6 7 8 9 10 11 12 13 14 15 16 17 18 19 20 21 22 23 24 25 26 27 28 29 30 31 32 33 34 35 36 37 38 39 40 41 42 43 44 45 46 47 48 49 50
000
ASUS43 KLMK 180410
RWRKY
KENTUCKY REGIONAL WEATHER ROUNDUP
NATIONAL WEATHER SERVICE LOUISVILLE KY
1100 PM EST SAT FEB 17 2018

NOTE "FAIR" INDICATES FEW OR NO CLOUDS BELOW 12,000 FEET
WITH NO SIGNIFICANT WEATHER AND/OR OBSTRUCTIONS TO VISIBILITY.

KYZ001>023-026-027-061>063-070>075-180500-
WESTERN AND SOUTH CENTRAL KENTUCKY

CITY           SKY/WX    TMP DP  RH WIND       PRES   REMARKS
PADUCAH        FAIR      36  33  89 SW5       30.25R WCI  32
HENDERSON      FAIR      37  35  92 W3        30.25R
OWENSBORO      FAIR      38  34  85 NW6       30.24R WCI  33
HOPKINSVILLE   FAIR      41  39  94 NW3       30.25R
BOWLING GREEN  MOCLDY    43  38  82 NW6       30.25R
GLASGOW        CLOUDY   N/A N/A N/A W8        30.23R
$$

KYZ024-025-028>034-038-045-046-053-180500-
NORTH CENTRAL KENTUCKY

CITY           SKY/WX    TMP DP  RH WIND       PRES   REMARKS
LOUISVILLE/SDF DRIZZLE   41  37  86 W12       30.20R
LOUISVILLE/LOU CLOUDY    40  38  93 W13       30.20R WCI  32
FORT KNOX      CLOUDY    39  37  90 W10       30.20R WCI  33
$$

KYZ035>037-039>044-047>052-055>060-089>105-180500-
NORTHEAST KENTUCKY

CITY           SKY/WX    TMP DP  RH WIND       PRES   REMARKS
LEXINGTON      CLOUDY    41  37  86 W14       30.17R
COVINGTON      DRIZZLE   36  36 100 W12G20    30.12S WCI  28
FRANKFORT      CLOUDY    40  36  86 W9G18     30.17R FOG     WCI  34
$$

KYZ054-064>069-076>088-106>120-180500-
SOUTHEAST KENTUCKY

CITY           SKY/WX    TMP DP  RH WIND       PRES   REMARKS
JACKSON        LGT RAIN  43  41  93 W8        30.14R
LONDON         CLOUDY    44  41  89 W10       30.18R
SOMERSET       CLOUDY    43  43 100 W13       30.22R
MIDDLESBORO    CLOUDY    48  45  89 NW7       30.18R
MONTICELLO     NOT AVBL
$$





USA.gov is the U.S. government's official web portal to all federal, state and local government web resources and services.